• In Uzbekistan
  • List of Countries
  • For 7 days
  • Water Temperature
  • Satellite Maps
  • Weather Map
  • Weather Widgets
  • user-avatar
    Login

    Hourly Weather Ali Bayramli

    Today, 23 July, Tuesday

    Time Temperature Precipitation Wind Pressure Humidity
    00:00 +30°C° 0 mm 7 mps 755 mmHg 47%
    01:00 +29°C° 0 mm 5 mps 755 mmHg 52%
    02:00 +28°C° 0 mm 4 mps 755 mmHg 57%
    03:00 +27°C° 0 mm 3 mps 755 mmHg 62%
    04:00 +28°C° 0 mm 3 mps 755 mmHg 61%
    05:00 +28°C° 0 mm 3 mps 755 mmHg 59%
    06:00 +29°C° 0 mm 3 mps 756 mmHg 58%
    07:00 +30°C° 0 mm 3 mps 756 mmHg 52%
    08:00 +33°C° 0 mm 3 mps 755 mmHg 47%
    09:00 +34°C° 0 mm 2 mps 755 mmHg 41%
    10:00 +36°C° 0 mm 3 mps 755 mmHg 37%
    11:00 +37°C° 0 mm 3 mps 755 mmHg 33%
    12:00 +38°C° 0 mm 3 mps 754 mmHg 28%
    13:00 +39°C° 0 mm 5 mps 754 mmHg 28%
    14:00 +39°C° 0 mm 7 mps 753 mmHg 28%
    15:00 +39°C° 0 mm 8 mps 753 mmHg 28%
    16:00 +38°C° 0 mm 9 mps 753 mmHg 31%
    17:00 +35°C° 0 mm 9 mps 753 mmHg 35%
    18:00 +34°C° 0 mm 9 mps 753 mmHg 38%
    19:00 +33°C° 0 mm 8 mps 753 mmHg 42%
    20:00 +30°C° 0 mm 7 mps 753 mmHg 45%
    21:00 +29°C° 0 mm 6 mps 753 mmHg 49%
    22:00 +29°C° 0 mm 5 mps 753 mmHg 52%
    23:00 +28°C° 0 mm 5 mps 753 mmHg 54%

    Tomorrow, 24 July, Wednesday

    Time Temperature Precipitation Wind Pressure Humidity
    00:00 +28°C° 0 mm 4 mps 753 mmHg 57%
    01:00 +27°C° 0 mm 4 mps 753 mmHg 58%
    02:00 +27°C° 0 mm 3 mps 752 mmHg 60%
    03:00 +26°C° 0 mm 2 mps 752 mmHg 61%
    04:00 +26°C° 0 mm 3 mps 752 mmHg 63%
    05:00 +26°C° 0 mm 3 mps 752 mmHg 64%
    06:00 +27°C° 0 mm 3 mps 752 mmHg 66%
    07:00 +28°C° 0 mm 3 mps 752 mmHg 59%
    08:00 +30°C° 0 mm 2 mps 752 mmHg 52%
    09:00 +32°C° 0 mm 2 mps 752 mmHg 45%
    10:00 +34°C° 0 mm 2 mps 752 mmHg 40%
    11:00 +35°C° 0 mm 1 mps 752 mmHg 35%
    12:00 +37°C° 0 mm 1 mps 751 mmHg 30%
    13:00 +38°C° 0 mm 3 mps 751 mmHg 31%
    14:00 +39°C° 0 mm 5 mps 751 mmHg 31%
    15:00 +39°C° 0 mm 7 mps 750 mmHg 32%
    16:00 +36°C° 0 mm 7 mps 750 mmHg 36%
    17:00 +35°C° 0 mm 6 mps 750 mmHg 41%
    18:00 +33°C° 0 mm 6 mps 750 mmHg 45%
    19:00 +32°C° 0 mm 6 mps 751 mmHg 50%
    20:00 +30°C° 0 mm 5 mps 751 mmHg 55%
    21:00 +29°C° 0 mm 4 mps 751 mmHg 60%
    22:00 +28°C° 0 mm 3 mps 751 mmHg 63%
    23:00 +27°C° 0 mm 2 mps 751 mmHg 66%

    Day after tomorrow, 25 July, Thursday

    Time Temperature Precipitation Wind Pressure Humidity
    00:00 +27°C° 0 mm 1 mps 751 mmHg 69%
    01:00 +26°C° 0 mm 1 mps 751 mmHg 70%
    02:00 +26°C° 0 mm 1 mps 751 mmHg 71%
    03:00 +26°C° 0 mm 1 mps 751 mmHg 72%
    04:00 +26°C° 0 mm 1 mps 751 mmHg 69%
    05:00 +27°C° 0 mm 1 mps 751 mmHg 65%
    06:00 +28°C° 0 mm 1 mps 752 mmHg 62%
    07:00 +30°C° 0 mm 2 mps 752 mmHg 55%
    08:00 +32°C° 0 mm 2 mps 752 mmHg 48%
    09:00 +34°C° 0 mm 2 mps 752 mmHg 41%
    10:00 +36°C° 0 mm 2 mps 752 mmHg 37%
    11:00 +38°C° 0 mm 2 mps 752 mmHg 33%
    12:00 +39°C° 0 mm 2 mps 751 mmHg 29%
    13:00 +39°C° 0 mm 3 mps 751 mmHg 29%
    14:00 +41°C° 0 mm 4 mps 750 mmHg 29%
    15:00 +41°C° 0 mm 6 mps 750 mmHg 30%
    16:00 +39°C° 0 mm 6 mps 750 mmHg 32%
    17:00 +38°C° 0 mm 7 mps 750 mmHg 35%
    18:00 +35°C° 0 mm 8 mps 751 mmHg 38%
    19:00 +34°C° 0 mm 7 mps 751 mmHg 41%
    20:00 +33°C° 0 mm 6 mps 752 mmHg 44%
    21:00 +32°C° 0 mm 6 mps 752 mmHg 47%
    22:00 +30°C° 0 mm 5 mps 753 mmHg 48%
    23:00 +30°C° 0 mm 5 mps 753 mmHg 50%

    26 July, Friday

    Time Temperature Precipitation Wind Pressure Humidity
    00:00 +29°C° 0 mm 4 mps 753 mmHg 52%
    01:00 +28°C° 0 mm 3 mps 753 mmHg 54%
    02:00 +28°C° 0 mm 3 mps 753 mmHg 56%
    03:00 +27°C° 0 mm 2 mps 753 mmHg 58%
    04:00 +28°C° 0 mm 2 mps 753 mmHg 56%
    05:00 +28°C° 0 mm 2 mps 754 mmHg 54%
    06:00 +29°C° 0 mm 2 mps 754 mmHg 52%
    07:00 +31°C° 0 mm 2 mps 755 mmHg 47%
    08:00 +32°C° 0 mm 2 mps 755 mmHg 42%
    09:00 +35°C° 0 mm 2 mps 755 mmHg 36%
    10:00 +36°C° 0 mm 2 mps 755 mmHg 35%
    11:00 +37°C° 0 mm 3 mps 755 mmHg 33%
    12:00 +38°C° 0 mm 3 mps 754 mmHg 31%
    13:00 +39°C° 0 mm 5 mps 754 mmHg 32%
    14:00 +38°C° 0 mm 7 mps 754 mmHg 33%
    15:00 +38°C° 0 mm 10 mps 754 mmHg 34%
    16:00 +36°C° 0 mm 10 mps 754 mmHg 37%
    17:00 +34°C° 0 mm 10 mps 754 mmHg 40%
    18:00 +33°C° 0 mm 10 mps 754 mmHg 43%
    19:00 +32°C° 0 mm 9 mps 754 mmHg 45%
    20:00 +31°C° 0 mm 8 mps 755 mmHg 48%
    21:00 +29°C° 0 mm 7 mps 755 mmHg 50%
    22:00 +28°C° 0 mm 7 mps 755 mmHg 52%
    23:00 +28°C° 0 mm 6 mps 755 mmHg 54%

    27 July, Saturday

    Time Temperature Precipitation Wind Pressure Humidity
    00:00 +28°C° 0 mm 5 mps 755 mmHg 55%
    01:00 +27°C° 0 mm 4 mps 755 mmHg 58%
    02:00 +27°C° 0 mm 3 mps 755 mmHg 60%
    03:00 +26°C° 0 mm 2 mps 755 mmHg 63%
    04:00 +26°C° 0 mm 2 mps 755 mmHg 64%
    05:00 +26°C° 0 mm 1 mps 755 mmHg 64%
    06:00 +27°C° 0 mm 1 mps 755 mmHg 65%
    07:00 +28°C° 0 mm 1 mps 755 mmHg 56%
    08:00 +30°C° 0 mm 2 mps 755 mmHg 47%
    09:00 +32°C° 0 mm 2 mps 755 mmHg 38%
    10:00 +34°C° 0 mm 3 mps 754 mmHg 35%
    11:00 +35°C° 0 mm 4 mps 754 mmHg 31%
    12:00 +38°C° 0 mm 6 mps 753 mmHg 27%
    13:00 +38°C° 0 mm 6 mps 753 mmHg 27%
    14:00 +36°C° 0 mm 6 mps 753 mmHg 28%
    15:00 +36°C° 0 mm 7 mps 752 mmHg 28%
    16:00 +35°C° 0 mm 6 mps 752 mmHg 31%
    17:00 +34°C° 0 mm 6 mps 752 mmHg 33%
    18:00 +33°C° 0 mm 6 mps 752 mmHg 36%
    19:00 +30°C° 0 mm 5 mps 752 mmHg 42%
    20:00 +29°C° 0 mm 4 mps 752 mmHg 48%
    21:00 +28°C° 0 mm 3 mps 753 mmHg 54%
    22:00 +27°C° 0 mm 3 mps 752 mmHg 56%
    23:00 +27°C° 0 mm 2 mps 752 mmHg 58%

    28 July, Sunday

    Time Temperature Precipitation Wind Pressure Humidity
    00:00 +26°C° 0 mm 2 mps 752 mmHg 60%
    01:00 +26°C° 0 mm 2 mps 752 mmHg 61%
    02:00 +25°C° 0 mm 2 mps 752 mmHg 61%
    03:00 +25°C° 0 mm 2 mps 752 mmHg 61%
    04:00 +26°C° 0 mm 1 mps 752 mmHg 59%
    05:00 +26°C° 0 mm 1 mps 752 mmHg 57%
    06:00 +27°C° 0 mm 1 mps 752 mmHg 55%
    07:00 +28°C° 0 mm 1 mps 752 mmHg 49%
    08:00 +30°C° 0 mm 1 mps 752 mmHg 42%
    09:00 +32°C° 0 mm 2 mps 752 mmHg 35%
    10:00 +34°C° 0 mm 2 mps 751 mmHg 33%
    11:00 +35°C° 0 mm 3 mps 751 mmHg 30%
    12:00 +36°C° 0 mm 3 mps 751 mmHg 28%
    13:00 +37°C° 0 mm 4 mps 750 mmHg 28%
    14:00 +37°C° 0 mm 5 mps 750 mmHg 28%
    15:00 +38°C° 0 mm 6 mps 749 mmHg 28%
    16:00 +36°C° 0 mm 6 mps 749 mmHg 31%
    17:00 +34°C° 0 mm 6 mps 749 mmHg 35%
    18:00 +33°C° 0 mm 6 mps 749 mmHg 39%
    19:00 +30°C° 0 mm 5 mps 750 mmHg 44%
    20:00 +29°C° 0 mm 5 mps 750 mmHg 48%
    21:00 +28°C° 0 mm 4 mps 751 mmHg 53%
    22:00 +27°C° 0 mm 3 mps 751 mmHg 54%
    23:00 +27°C° 0 mm 2 mps 751 mmHg 55%
    Show more